Simultaneous Nadir Overpasses (SNOs) Predictions

Prediction of SNOs between GOES-16 and METOP-C Satellite Orbit:

Table of predicted SNOs for the next 14.0 days since TLE Epoch: 1/2/2022
Index Date Time (GOES-16) GOES-16 Lat,Lon METOP-C Lat,Lon Distance(km) Time Diff (sec)
1 01/03/2022 02:20:37 0.02, -75.17 0.54, -72.73 277.24 80
2 01/04/2022 14:42:09 -0.02, -75.18 0.44, -77.29 240.49 80
3 01/05/2022 14:18:50 -0.02, -75.18 -0.65, -72.30 328.91 80
4 01/07/2022 02:40:31 0.01, -75.18 -0.37, -76.89 195.53 80
5 01/08/2022 02:17:12 0.01, -75.19 0.72, -71.89 374.43 80
6 01/09/2022 14:38:44 -0.00, -75.22 0.25, -76.46 141.45 80
7 01/10/2022 14:15:25 -0.01, -75.23 -0.85, -71.47 428.93 80
8 01/12/2022 02:37:06 0.01, -75.24 -0.18, -76.06 94.48 80
9 01/13/2022 02:13:47 0.02, -75.25 0.97, -71.08 476.03 80
10 01/14/2022 14:35:19 -0.02, -75.29 0.04, -75.64 39.23 80
